ZHANGZHENG-1 (CSES) (43194 NORAD) Tracking and Keplerian Element Data

This shows tracking and keplerian element data for the satellite.

Feedback or suggestion? Click here.




ElementValue
Catalog43194
NameZHANGZHENG-1 (CSES)
Epoch Orbit25808
Epoch Day270.18181675
Epoch Year2022
RAAN40.859
Inclination97.5354
Eccentricity0.0009887
Argument of Perigee98.1168
Mean Anonmoly2.645
Mean Motion15.21193075
Decay Rate7.634E-05
L11 43194U 18015C 22270.18181675 .00007634 00000+0 34501-3 0 9991
L22 43194 97.5354 40.8590 0009887 98.1168 2.6450 15.21193075258081

Live tracking and technical data element details for ZHANGZHENG-1 (CSES) (NORAD 43194). ZHANGZHENG-1 (CSES) can be tracked NOW for your location showing map with azimuth and elevation plus other details from your city location.

Track the satellite on the map from your city or location and see movement details for azimuth, elevation, latitude, longitude, range, height, and movement on the map or in text.







IsCatalogInMostPopularTable: catalog: 43194, numindb: 658
Update: records affected: 1



GetName: 43194 ZHANGZHENG-1 (CSES)

Hit Count: updated at: Thu, 29 Sep 2022 11:55:47 GMT